TimeCDT,TemperatureF,Dew PointF,Humidity,Sea Level PressureIn,VisibilityMPH,Wind Direction,Wind SpeedMPH,Gust SpeedMPH,PrecipitationIn,Events,Conditions,WindDirDegrees,DateUTC
12:15 AM,60.8,53.6,77,30.05,10.0,SE,5.8,-,0.01,,Overcast,140,2012-10-04 05:15:00
12:35 AM,60.8,55.4,82,30.06,10.0,Calm,Calm,-,0.01,,Overcast,0,2012-10-04 05:35:00
12:55 AM,59.0,55.4,88,30.06,10.0,ENE,3.5,-,0.01,,Overcast,70,2012-10-04 05:55:00
1:15 AM,59.0,55.4,88,30.06,10.0,East,4.6,-,N/A,,Overcast,90,2012-10-04 06:15:00
1:35 AM,59.0,55.4,88,30.06,10.0,SE,5.8,-,N/A,,Overcast,130,2012-10-04 06:35:00
1:55 AM,59.0,55.4,88,30.06,10.0,SSE,5.8,-,N/A,,Overcast,150,2012-10-04 06:55:00
2:15 AM,59.0,55.4,88,30.06,10.0,SSE,5.8,-,N/A,,Overcast,150,2012-10-04 07:15:00
2:35 AM,57.2,55.4,94,30.06,10.0,SE,5.8,-,N/A,,Scattered Clouds,140,2012-10-04 07:35:00
2:55 AM,57.2,55.4,94,30.06,10.0,SSE,5.8,-,N/A,,Clear,160,2012-10-04 07:55:00
3:15 AM,57.2,53.6,88,30.06,10.0,SSE,5.8,-,N/A,,Clear,160,2012-10-04 08:15:00
3:35 AM,55.4,53.6,94,30.06,10.0,SSE,5.8,-,N/A,,Clear,150,2012-10-04 08:35:00
3:55 AM,55.4,53.6,94,30.06,10.0,SSE,5.8,-,N/A,,Clear,160,2012-10-04 08:55:00
4:15 AM,53.6,51.8,94,30.07,10.0,SSE,3.5,-,N/A,,Clear,150,2012-10-04 09:15:00
4:35 AM,53.6,51.8,94,30.07,10.0,SSE,4.6,-,N/A,,Clear,150,2012-10-04 09:35:00
4:55 AM,53.6,51.8,94,30.07,7.0,SSE,3.5,-,N/A,,Clear,150,2012-10-04 09:55:00
5:15 AM,53.6,51.8,94,30.07,7.0,SSE,4.6,-,N/A,,Clear,150,2012-10-04 10:15:00
5:35 AM,53.6,51.8,94,30.07,7.0,SE,5.8,-,N/A,,Clear,140,2012-10-04 10:35:00
5:55 AM,53.6,53.6,100,30.07,7.0,SE,5.8,-,N/A,,Clear,140,2012-10-04 10:55:00
6:15 AM,53.6,51.8,94,30.07,7.0,SSE,5.8,-,N/A,,Clear,150,2012-10-04 11:15:00
6:35 AM,53.6,51.8,94,30.07,7.0,SSE,3.5,-,N/A,,Clear,160,2012-10-04 11:35:00
6:55 AM,53.6,53.6,100,30.07,7.0,South,4.6,-,N/A,,Clear,170,2012-10-04 11:55:00
7:15 AM,53.6,53.6,100,30.07,7.0,South,4.6,-,N/A,,Clear,180,2012-10-04 12:15:00
7:35 AM,55.4,55.4,100,30.07,10.0,South,5.8,-,N/A,,Clear,190,2012-10-04 12:35:00
7:55 AM,59.0,55.4,88,30.07,10.0,SSW,9.2,-,N/A,,Clear,200,2012-10-04 12:55:00
8:15 AM,60.8,55.4,82,30.07,10.0,SSW,10.4,-,N/A,,Clear,200,2012-10-04 13:15:00
8:35 AM,62.6,57.2,82,30.07,10.0,SSW,10.4,-,N/A,,Clear,200,2012-10-04 13:35:00
8:55 AM,62.6,57.2,82,30.07,10.0,SSW,10.4,17.3,N/A,,Clear,210,2012-10-04 13:55:00
9:15 AM,64.4,57.2,77,30.07,10.0,SSW,11.5,-,N/A,,Clear,200,2012-10-04 14:15:00
9:35 AM,66.2,59.0,78,30.07,10.0,SSW,12.7,-,N/A,,Clear,210,2012-10-04 14:35:00
9:55 AM,66.2,59.0,78,30.07,10.0,SSW,13.8,-,N/A,,Clear,210,2012-10-04 14:55:00
10:15 AM,69.8,59.0,68,30.06,10.0,SSW,15.0,-,N/A,,Clear,210,2012-10-04 15:15:00
10:35 AM,69.8,59.0,68,30.06,10.0,SSW,15.0,-,N/A,,Scattered Clouds,210,2012-10-04 15:35:00
10:55 AM,71.6,59.0,64,30.06,10.0,SSW,11.5,-,N/A,,Clear,210,2012-10-04 15:55:00
11:15 AM,73.4,59.0,61,30.05,10.0,SSW,17.3,-,N/A,,Clear,210,2012-10-04 16:15:00
11:35 AM,73.4,57.2,57,30.04,10.0,SSW,13.8,21.9,N/A,,Clear,210,2012-10-04 16:35:00
11:55 AM,75.2,57.2,53,30.04,10.0,SSW,16.1,21.9,N/A,,Clear,210,2012-10-04 16:55:00
12:15 PM,77.0,57.2,50,30.04,10.0,SSW,17.3,-,N/A,,Clear,210,2012-10-04 17:15:00
12:35 PM,77.0,57.2,50,30.03,10.0,SSW,15.0,23.0,N/A,,Clear,200,2012-10-04 17:35:00
12:55 PM,78.8,57.2,47,30.03,10.0,SSW,15.0,23.0,N/A,,Scattered Clouds,210,2012-10-04 17:55:00
1:15 PM,78.8,55.4,44,30.03,10.0,SW,18.4,24.2,N/A,,Scattered Clouds,230,2012-10-04 18:15:00
1:35 PM,77.0,55.4,47,30.04,10.0,WSW,18.4,23.0,N/A,,Scattered Clouds,240,2012-10-04 18:35:00
1:55 PM,80.6,55.4,42,30.03,10.0,WSW,18.4,24.2,N/A,,Scattered Clouds,250,2012-10-04 18:55:00
2:15 PM,80.6,55.4,42,30.03,10.0,WSW,17.3,20.7,N/A,,Clear,240,2012-10-04 19:15:00
2:35 PM,80.6,55.4,42,30.02,10.0,WSW,15.0,23.0,N/A,,Clear,250,2012-10-04 19:35:00
2:55 PM,78.8,57.2,47,30.03,10.0,WSW,20.7,26.5,N/A,,Clear,250,2012-10-04 19:55:00
3:15 PM,77.0,57.2,50,30.04,10.0,West,17.3,25.3,N/A,,Scattered Clouds,260,2012-10-04 20:15:00
3:35 PM,75.2,57.2,53,30.04,10.0,West,18.4,25.3,N/A,,Scattered Clouds,280,2012-10-04 20:35:00
3:55 PM,69.8,55.4,60,30.05,10.0,WNW,15.0,26.5,N/A,,Scattered Clouds,300,2012-10-04 20:55:00
4:15 PM,68.0,53.6,60,30.06,10.0,WNW,18.4,25.3,N/A,,Clear,290,2012-10-04 21:15:00
4:35 PM,66.2,51.8,60,30.07,10.0,WNW,20.7,27.6,N/A,,Scattered Clouds,290,2012-10-04 21:35:00
4:55 PM,66.2,51.8,60,30.09,10.0,WNW,23.0,-,N/A,,Scattered Clouds,290,2012-10-04 21:55:00
5:15 PM,64.4,48.2,56,30.10,10.0,WNW,17.3,31.1,N/A,,Scattered Clouds,300,2012-10-04 22:15:00
5:35 PM,62.6,48.2,59,30.08,10.0,NW,13.8,-,N/A,,Mostly Cloudy,320,2012-10-04 22:35:00
5:55 PM,60.8,48.2,63,30.08,10.0,NW,8.1,-,N/A,,Mostly Cloudy,310,2012-10-04 22:55:00
6:15 PM,60.8,48.2,63,30.09,10.0,WNW,12.7,-,N/A,Thunderstorm,Overcast,300,2012-10-04 23:15:00
6:35 PM,57.2,51.8,82,30.10,10.0,WNW,20.7,24.2,N/A,,Overcast,300,2012-10-04 23:35:00
6:55 PM,55.4,51.8,88,30.12,7.0,WNW,19.6,28.8,0.01,Rain-Thunderstorm,Thunderstorms and Rain,300,2012-10-04 23:55:00
7:15 PM,53.6,51.8,94,30.13,10.0,WNW,16.1,-,0.06,Rain,Rain,300,2012-10-05 00:15:00
7:35 PM,51.8,50.0,94,30.13,10.0,WNW,13.8,-,0.13,Rain,Heavy Rain,290,2012-10-05 00:35:00
7:55 PM,51.8,51.8,100,30.12,10.0,WNW,11.5,-,0.21,Rain-Thunderstorm,Rain,290,2012-10-05 00:55:00
8:15 PM,51.8,50.0,94,30.12,10.0,WNW,11.5,-,0.01,Rain,Light Rain,290,2012-10-05 01:15:00
8:35 PM,51.8,50.0,94,30.13,10.0,West,11.5,-,0.01,Rain,Light Rain,280,2012-10-05 01:35:00
8:55 PM,51.8,50.0,94,30.12,7.0,West,8.1,-,0.03,Rain,Rain,280,2012-10-05 01:55:00
9:15 PM,51.8,50.0,94,30.14,10.0,West,8.1,-,0.01,,Overcast,280,2012-10-05 02:15:00
9:35 PM,51.8,50.0,94,30.14,10.0,West,9.2,-,0.01,,Overcast,270,2012-10-05 02:35:00
9:55 PM,51.8,48.2,88,30.14,10.0,West,10.4,-,0.01,,Overcast,270,2012-10-05 02:55:00
10:15 PM,51.8,48.2,88,30.15,10.0,West,8.1,-,N/A,,Overcast,270,2012-10-05 03:15:00
10:35 PM,51.8,48.2,88,30.16,10.0,West,10.4,-,N/A,,Overcast,270,2012-10-05 03:35:00
10:55 PM,51.8,48.2,88,30.16,10.0,West,9.2,-,N/A,,Mostly Cloudy,270,2012-10-05 03:55:00
11:15 PM,51.8,48.2,88,30.16,10.0,West,11.5,-,N/A,,Scattered Clouds,280,2012-10-05 04:15:00
11:35 PM,50.0,46.4,87,30.16,10.0,West,8.1,-,N/A,,Clear,280,2012-10-05 04:35:00
11:55 PM,48.2,46.4,93,30.15,10.0,West,6.9,-,N/A,,Scattered Clouds,280,2012-10-05 04:55:00